Time,TemperatureF,DewpointF,PressureIn,WindDirection,WindDirectionDegrees,WindSpeedMPH,WindSpeedGustMPH,Humidity,HourlyPrecipIn,Conditions,Clouds,dailyrainin,SolarRadiationWatts/m^2,SoftwareType,DateUTC
2013-03-16 00:01:00,38.0,27.0,-100.00,SE,136,0.0,4.0,64,0.00,,,-99.99,0.000000,,2013-03-16 07:01:00,
2013-03-16 00:02:00,38.0,25.0,-100.00,North,350,0.0,5.0,58,-99.99,,,0.00,0.000000,,2013-03-16 07:02:00,
2013-03-16 00:32:00,38.0,25.0,-100.00,North,350,0.0,5.0,58,-99.99,,,0.00,0.000000,,2013-03-16 07:32:00,
2013-03-16 01:33:00,36.0,23.0,-100.00,NNW,343,0.0,4.0,58,0.00,,,0.00,0.000000,,2013-03-16 08:33:00,
2013-03-16 01:42:00,36.0,23.0,-100.00,NNW,343,0.0,4.0,58,0.00,,,0.00,0.000000,,2013-03-16 08:42:00,
2013-03-16 01:52:00,36.0,23.0,-100.00,NNW,343,0.0,4.0,58,0.00,,,0.00,0.000000,,2013-03-16 08:52:00,
2013-03-16 02:01:00,36.0,23.0,-100.00,NNW,343,0.0,4.0,58,0.00,,,0.00,0.000000,,2013-03-16 09:01:00,
2013-03-16 02:02:00,36.0,22.0,-100.00,ESE,102,0.0,4.0,57,0.00,,,0.00,0.000000,,2013-03-16 09:02:00,
2013-03-16 02:33:00,36.0,22.0,-100.00,ESE,102,0.0,4.0,57,0.00,,,0.00,0.000000,,2013-03-16 09:33:00,
2013-03-16 02:42:00,36.0,22.0,-100.00,ESE,102,0.0,4.0,57,0.00,,,0.00,0.000000,,2013-03-16 09:42:00,
2013-03-16 02:53:00,36.0,22.0,-100.00,ESE,102,0.0,4.0,57,0.00,,,0.00,0.000000,,2013-03-16 09:53:00,
2013-03-16 03:02:00,37.0,21.0,-100.00,East,101,0.0,5.0,51,0.00,,,0.00,0.000000,,2013-03-16 10:02:00,
2013-03-16 03:32:00,37.0,21.0,-100.00,East,101,0.0,5.0,51,0.00,,,0.00,0.000000,,2013-03-16 10:32:00,
2013-03-16 03:42:00,37.0,21.0,-100.00,East,101,0.0,5.0,51,0.00,,,0.00,0.000000,,2013-03-16 10:42:00,
2013-03-16 03:52:00,37.0,21.0,-100.00,East,101,0.0,5.0,51,0.00,,,0.00,0.000000,,2013-03-16 10:52:00,
2013-03-16 04:33:00,33.0,21.0,-100.00,East,100,0.0,5.0,60,0.00,,,-99.99,0.000000,,2013-03-16 11:33:00,
2013-03-16 05:01:00,33.0,21.0,-100.00,East,100,0.0,5.0,60,0.00,,,-99.99,0.000000,,2013-03-16 12:01:00,
2013-03-16 05:02:00,33.0,20.0,-100.00,East,89,0.0,3.0,58,0.00,,,0.00,0.000000,,2013-03-16 12:02:00,
2013-03-16 05:22:00,33.0,20.0,-100.00,East,89,0.0,3.0,58,0.00,,,0.00,0.000000,,2013-03-16 12:22:00,
2013-03-16 05:32:00,33.0,20.0,-100.00,East,89,0.0,3.0,58,0.00,,,0.00,0.000000,,2013-03-16 12:32:00,
2013-03-16 06:02:00,33.0,20.0,-100.00,ESE,110,0.0,5.0,59,0.00,,,0.00,0.000000,,2013-03-16 13:02:00,
2013-03-16 06:32:00,33.0,20.0,-100.00,ESE,110,0.0,5.0,59,0.00,,,0.00,0.000000,,2013-03-16 13:32:00,
2013-03-16 06:42:00,33.0,20.0,-100.00,ESE,110,0.0,5.0,59,0.00,,,0.00,0.000000,,2013-03-16 13:42:00,
2013-03-16 06:53:00,33.0,20.0,-100.00,ESE,110,0.0,5.0,59,0.00,,,0.00,0.000000,,2013-03-16 13:53:00,
2013-03-16 07:02:00,35.0,16.0,-100.00,East,94,0.0,6.0,45,0.00,,,0.00,0.000000,,2013-03-16 14:02:00,
2013-03-16 07:32:00,35.0,16.0,-100.00,East,94,0.0,6.0,45,0.00,,,0.00,0.000000,,2013-03-16 14:32:00,
2013-03-16 07:42:00,35.0,16.0,-100.00,East,94,0.0,6.0,45,0.00,,,0.00,0.000000,,2013-03-16 14:42:00,
2013-03-16 07:52:00,35.0,16.0,-100.00,East,94,0.0,6.0,45,0.00,,,0.00,0.000000,,2013-03-16 14:52:00,
2013-03-16 08:02:00,33.0,16.0,-100.00,East,79,0.0,4.0,50,0.00,,,0.00,13.000000,,2013-03-16 15:02:00,
2013-03-16 08:33:00,33.0,16.0,-100.00,East,79,0.0,4.0,50,0.00,,,0.00,13.000000,,2013-03-16 15:33:00,
2013-03-16 08:43:00,33.0,16.0,-100.00,East,79,0.0,4.0,50,0.00,,,0.00,13.000000,,2013-03-16 15:43:00,
2013-03-16 08:53:00,33.0,16.0,-100.00,East,79,0.0,4.0,50,0.00,,,0.00,13.000000,,2013-03-16 15:53:00,
2013-03-16 09:02:00,44.0,25.0,-100.00,ENE,76,0.0,6.0,46,0.00,,,0.00,180.000000,,2013-03-16 16:02:00,
2013-03-16 09:23:00,44.0,25.0,-100.00,ENE,76,0.0,6.0,46,0.00,,,0.00,180.000000,,2013-03-16 16:23:00,
2013-03-16 09:33:00,44.0,25.0,-100.00,ENE,76,0.0,6.0,46,0.00,,,0.00,180.000000,,2013-03-16 16:33:00,
2013-03-16 09:42:00,44.0,25.0,-100.00,ENE,76,0.0,6.0,46,0.00,,,0.00,180.000000,,2013-03-16 16:42:00,
2013-03-16 09:53:00,44.0,25.0,-100.00,ENE,76,0.0,6.0,46,0.00,,,0.00,180.000000,,2013-03-16 16:53:00,
2013-03-16 10:02:00,49.0,20.0,-100.00,SW,216,0.0,6.0,32,0.00,,,0.00,206.000000,,2013-03-16 17:02:00,
2013-03-16 10:33:00,49.0,20.0,-100.00,SW,216,0.0,6.0,32,0.00,,,0.00,206.000000,,2013-03-16 17:33:00,
2013-03-16 10:43:00,49.0,20.0,-100.00,SW,216,0.0,6.0,32,0.00,,,0.00,206.000000,,2013-03-16 17:43:00,
2013-03-16 10:53:00,49.0,20.0,-100.00,SW,216,0.0,6.0,32,0.00,,,0.00,206.000000,,2013-03-16 17:53:00,
2013-03-16 11:33:00,56.0,17.0,-100.00,NNW,338,1.0,6.0,21,0.00,,,0.00,144.000000,,2013-03-16 18:33:00,
2013-03-16 11:43:00,56.0,17.0,-100.00,NNW,338,1.0,6.0,21,0.00,,,0.00,144.000000,,2013-03-16 18:43:00,
2013-03-16 11:53:00,56.0,17.0,-100.00,NNW,338,1.0,6.0,21,0.00,,,0.00,144.000000,,2013-03-16 18:53:00,
2013-03-16 12:01:00,56.0,17.0,-100.00,NNW,338,1.0,6.0,21,0.00,,,0.00,144.000000,,2013-03-16 19:01:00,
2013-03-16 12:02:00,62.0,15.0,-100.00,SW,228,0.0,7.0,16,0.00,,,0.00,697.000000,,2013-03-16 19:02:00,
2013-03-16 12:22:00,62.0,15.0,-100.00,SW,228,0.0,7.0,16,0.00,,,0.00,697.000000,,2013-03-16 19:22:00,
2013-03-16 12:33:00,62.0,15.0,-100.00,SW,228,0.0,7.0,16,0.00,,,0.00,697.000000,,2013-03-16 19:33:00,
2013-03-16 12:42:00,62.0,15.0,-100.00,SW,228,0.0,7.0,16,0.00,,,0.00,697.000000,,2013-03-16 19:42:00,
2013-03-16 12:52:00,62.0,15.0,-100.00,SW,228,0.0,7.0,16,0.00,,,0.00,697.000000,,2013-03-16 19:52:00,
2013-03-16 13:02:00,65.0,15.0,-100.00,North,10,1.0,6.0,14,0.00,,,0.00,961.000000,,2013-03-16 20:02:00,
2013-03-16 13:33:00,65.0,15.0,-100.00,North,10,1.0,6.0,14,0.00,,,0.00,961.000000,,2013-03-16 20:33:00,
2013-03-16 13:42:00,65.0,15.0,-100.00,North,10,1.0,6.0,14,0.00,,,0.00,961.000000,,2013-03-16 20:42:00,
2013-03-16 13:52:00,65.0,15.0,-100.00,North,10,1.0,6.0,14,0.00,,,0.00,961.000000,,2013-03-16 20:52:00,
2013-03-16 14:02:00,59.0,19.0,-100.00,NE,45,4.0,10.0,21,0.00,,,0.00,499.000000,,2013-03-16 21:02:00,
2013-03-16 14:23:00,59.0,19.0,-100.00,NE,45,4.0,10.0,21,0.00,,,0.00,499.000000,,2013-03-16 21:23:00,
2013-03-16 14:33:00,59.0,19.0,-100.00,NE,45,4.0,10.0,21,0.00,,,0.00,499.000000,,2013-03-16 21:33:00,
2013-03-16 14:43:00,59.0,19.0,-100.00,NE,45,4.0,10.0,21,0.00,,,0.00,499.000000,,2013-03-16 21:43:00,
2013-03-16 14:52:00,59.0,19.0,-100.00,NE,45,4.0,10.0,21,0.00,,,0.00,499.000000,,2013-03-16 21:52:00,
2013-03-16 15:02:00,62.0,26.0,-100.00,ESE,116,3.0,10.0,25,0.00,,,0.00,825.000000,,2013-03-16 22:02:00,
2013-03-16 15:33:00,62.0,26.0,-100.00,ESE,116,3.0,10.0,25,0.00,,,0.00,825.000000,,2013-03-16 22:33:00,
2013-03-16 15:42:00,62.0,26.0,-100.00,ESE,116,3.0,10.0,25,0.00,,,0.00,825.000000,,2013-03-16 22:42:00,
2013-03-16 15:52:00,62.0,26.0,-100.00,ESE,116,3.0,10.0,25,0.00,,,0.00,825.000000,,2013-03-16 22:52:00,
2013-03-16 16:33:00,62.0,29.0,-100.00,NW,314,4.0,14.0,28,0.00,,,0.00,765.000000,,2013-03-16 23:33:00,
2013-03-16 16:42:00,62.0,29.0,-100.00,NW,314,4.0,14.0,28,0.00,,,0.00,765.000000,,2013-03-16 23:42:00,
2013-03-16 16:52:00,62.0,29.0,-100.00,NW,314,4.0,14.0,28,0.00,,,0.00,765.000000,,2013-03-16 23:52:00,
2013-03-16 17:01:00,62.0,29.0,-100.00,NW,314,4.0,14.0,28,0.00,,,0.00,765.000000,,2013-03-17 00:01:00,
2013-03-16 17:02:00,58.0,21.0,-100.00,WNW,292,2.0,11.0,24,0.00,,,0.00,485.000000,,2013-03-17 00:02:00,
2013-03-16 17:33:00,58.0,21.0,-100.00,WNW,292,2.0,11.0,24,0.00,,,0.00,485.000000,,2013-03-17 00:33:00,
2013-03-16 17:42:00,58.0,21.0,-100.00,WNW,292,2.0,11.0,24,0.00,,,0.00,485.000000,,2013-03-17 00:42:00,
2013-03-16 17:52:00,58.0,21.0,-100.00,WNW,292,2.0,11.0,24,0.00,,,0.00,485.000000,,2013-03-17 00:52:00,
2013-03-16 18:33:00,52.0,16.0,-100.00,West,281,1.0,10.0,24,0.00,,,0.00,179.000000,,2013-03-17 01:33:00,
2013-03-16 18:42:00,52.0,16.0,-100.00,West,281,1.0,10.0,24,0.00,,,0.00,179.000000,,2013-03-17 01:42:00,
2013-03-16 18:53:00,52.0,16.0,-100.00,West,281,1.0,10.0,24,0.00,,,0.00,179.000000,,2013-03-17 01:53:00,
2013-03-16 19:02:00,46.0,23.0,-100.00,East,84,0.0,9.0,40,0.00,,,-99.99,43.000000,,2013-03-17 02:02:00,
2013-03-16 19:23:00,46.0,23.0,-100.00,East,84,0.0,9.0,40,0.00,,,-99.99,43.000000,,2013-03-17 02:23:00,
2013-03-16 19:33:00,46.0,23.0,-100.00,East,84,0.0,9.0,40,0.00,,,-99.99,43.000000,,2013-03-17 02:33:00,
2013-03-16 19:43:00,46.0,23.0,-100.00,East,84,0.0,9.0,40,0.00,,,-99.99,43.000000,,2013-03-17 02:43:00,
2013-03-16 19:52:00,46.0,23.0,-100.00,East,84,0.0,9.0,40,0.00,,,-99.99,43.000000,,2013-03-17 02:52:00,
2013-03-16 20:02:00,42.0,24.0,-100.00,East,82,0.0,0.0,49,0.00,,,0.00,1.000000,,2013-03-17 03:02:00,
2013-03-16 20:34:00,42.0,24.0,-100.00,East,82,0.0,0.0,49,0.00,,,0.00,1.000000,,2013-03-17 03:34:00,
2013-03-16 20:43:00,42.0,24.0,-100.00,East,82,0.0,0.0,49,0.00,,,0.00,1.000000,,2013-03-17 03:43:00,
2013-03-16 20:53:00,42.0,24.0,-100.00,East,82,0.0,0.0,49,0.00,,,0.00,1.000000,,2013-03-17 03:53:00,
2013-03-16 21:02:00,39.0,24.0,-100.00,WNW,293,0.0,4.0,55,0.00,,,0.00,0.000000,,2013-03-17 04:02:00,
2013-03-16 21:33:00,39.0,24.0,-100.00,WNW,293,0.0,4.0,55,0.00,,,0.00,0.000000,,2013-03-17 04:33:00,
2013-03-16 22:32:00,36.0,24.0,-100.00,ESE,104,0.0,6.0,62,0.00,,,0.00,0.000000,,2013-03-17 05:32:00,
2013-03-16 23:32:00,34.0,24.0,-100.00,ESE,113,0.0,0.0,67,-99.99,,,0.00,0.000000,,2013-03-17 06:32:00,